Location: Newark
(48.1500°N, 2.9667°W)
Time: 17:10:12
(UTC+00:00)

Altair - Pass Details

Date: 28 January 2020
Orbit: 1502 x 1682 km, 47.2° (Epoch: 22 February)

Event Time Altitude Azimuth Distance (km) Brightness Sun altitude
Rises 06:30:38 0° 198° (SSW) 4,827 10.1 -12.6°
Reaches altitude 10° 06:34:16 10° 187° (S) 3,869 9.7 -12.0°
Maximum altitude 06:42:17 29° 133° (SE) 2,717 9.6 -10.7°
Drops below altitude 10° 06:50:25 10° 79° (E) 3,947 10.7 -9.4°
Sets 06:54:08 0° 69° (ENE) 4,940 11.1 -8.8°
